| time (UTC) | temp F | wind direction | speed MPH | gust MPH | rain 1hr in | rain 24hr in | rain mn in | humidity % | barometer mb |
| 20260831082518 | 54 | 360 | 11.0 | 17.0 | 0.00 | 0.00 | 0.00 | 47 | 924.3 |
| 20260831082021 | 54 | 360 | 12.0 | 17.0 | 0.00 | 0.00 | 0.00 | 47 | 924.2 |
| 20260831081543 | 54 | 360 | 10.0 | 18.0 | 0.00 | 0.00 | 0.00 | 47 | 924.1 |
| 20260831081016 | 54 | 360 | 11.0 | 18.0 | 0.00 | 0.00 | 0.00 | 46 | 924.3 |
| 20260831080519 | 54 | 360 | 10.0 | 17.0 | 0.00 | 0.00 | 0.00 | 46 | 924.1 |
| 20260831080042 | 54 | 360 | 10.0 | 17.0 | 0.00 | 0.00 | 0.00 | 46 | 924.3 |
| 20260831075519 | 54 | 360 | 11.0 | 17.0 | 0.00 | 0.00 | 0.00 | 46 | 924.3 |
| 20260831075020 | 54 | 360 | 12.0 | 17.0 | 0.00 | 0.00 | 0.00 | 46 | 924.1 |
| 20260831074545 | 54 | 360 | 11.0 | 19.0 | 0.00 | 0.00 | 0.00 | 46 | 924.1 |
| 20260831074017 | 54 | 360 | 12.0 | 18.0 | 0.00 | 0.00 | 0.00 | 46 | 924.1 |
| 20260831073517 | 54 | 360 | 13.0 | 19.0 | 0.00 | 0.00 | 0.00 | 46 | 924.1 |
| 20260831073047 | 54 | 360 | 12.0 | 19.0 | 0.00 | 0.00 | 0.00 | 46 | 924.0 |
| 20260831072517 | 54 | 360 | 12.0 | 18.0 | 0.00 | 0.00 | 0.00 | 46 | 923.8 |
| 20260831072016 | 54 | 360 | 11.0 | 17.0 | 0.00 | 0.00 | 0.00 | 46 | 924.0 |
| 20260831071541 | 55 | 360 | 11.0 | 22.0 | 0.00 | 0.00 | 0.00 | 45 | 924.0 |
| 20260831071017 | 55 | 360 | 13.0 | 19.0 | 0.00 | 0.00 | 0.00 | 45 | 924.1 |
| 20260831070517 | 55 | 360 | 13.0 | 19.0 | 0.00 | 0.00 | 0.00 | 45 | 924.1 |
| 20260831070048 | 55 | 360 | 14.0 | 18.0 | 0.00 | 0.00 | 0.00 | 45 | 924.2 |
| 20260831065521 | 54 | 360 | 11.0 | 17.0 | 0.00 | 0.00 | 0.00 | 46 | 924.2 |
| 20260831065016 | 54 | 360 | 13.0 | 18.0 | 0.00 | 0.00 | 0.00 | 46 | 924.2 |
| 20260831064544 | 54 | 360 | 11.0 | 18.0 | 0.00 | 0.00 | 0.00 | 46 | 924.1 |
| 20260831064018 | 54 | 360 | 11.0 | 17.0 | 0.00 | 0.00 | 0.00 | 46 | 924.2 |
| 20260831063517 | 54 | 360 | 12.0 | 17.0 | 0.00 | 0.00 | 0.00 | 46 | 924.1 |
| 20260831063042 | 53 | 360 | 12.0 | 18.0 | 0.00 | 0.00 | 0.00 | 47 | 924.2 |
| 20260831062516 | 53 | 360 | 11.0 | 18.0 | 0.00 | 0.00 | 0.00 | 47 | 924.6 |
| 20260831062021 | 53 | 360 | 11.0 | 16.0 | 0.00 | 0.00 | 0.00 | 46 | 924.6 |
| 20260831061541 | 54 | 360 | 12.0 | 18.0 | 0.00 | 0.00 | 0.00 | 46 | 924.5 |
| 20260831061017 | 54 | 360 | 12.0 | 19.0 | 0.00 | 0.00 | 0.00 | 46 | 924.5 |
| 20260831060518 | 54 | 360 | 13.0 | 18.0 | 0.00 | 0.00 | 0.00 | 46 | 924.5 |
| 20260831060050 | 54 | 360 | 12.0 | 17.0 | 0.00 | 0.00 | 0.00 | 47 | 924.5 |
| 20260831055519 | 53 | 360 | 11.0 | 16.0 | 0.00 | 0.00 | 0.00 | 47 | 924.5 |
| 20260831055017 | 53 | 360 | 10.0 | 16.0 | 0.00 | 0.00 | 0.00 | 48 | 924.7 |
| 20260831054543 | 53 | 360 | 11.0 | 16.0 | 0.00 | 0.00 | 0.00 | 49 | 924.5 |
| 20260831054018 | 52 | 360 | 10.0 | 16.0 | 0.00 | 0.00 | 0.00 | 50 | 924.6 |
| 20260831053518 | 52 | 360 | 8.0 | 13.0 | 0.00 | 0.00 | 0.00 | 50 | 924.4 |
| 20260831053048 | 52 | 360 | 8.0 | 14.0 | 0.00 | 0.00 | 0.00 | 50 | 924.2 |
| 20260831052517 | 52 | 360 | 10.0 | 14.0 | 0.00 | 0.00 | 0.00 | 50 | 924.0 |
| 20260831052021 | 52 | 360 | 7.0 | 15.0 | 0.00 | 0.00 | 0.00 | 51 | 924.1 |
| 20260831051544 | 52 | 360 | 9.0 | 15.0 | 0.00 | 0.00 | 0.00 | 51 | 924.0 |
| 20260831051016 | 52 | 360 | 9.0 | 15.0 | 0.00 | 0.00 | 0.00 | 52 | 924.0 |
| 20260831050518 | 52 | 360 | 9.0 | 14.0 | 0.00 | 0.00 | 0.00 | 52 | 924.0 |
| 20260831050053 | 52 | 360 | 10.0 | 14.0 | 0.00 | 0.00 | 0.00 | 52 | 924.5 |
| 20260831045518 | 52 | 360 | 8.0 | 14.0 | 0.00 | 0.00 | 0.00 | 52 | 924.6 |
| 20260831045015 | 52 | 360 | 9.0 | 14.0 | 0.00 | 0.00 | 0.00 | 52 | 924.7 |
| 20260831044604 | 51 | 360 | 9.0 | 13.0 | 0.00 | 0.00 | 0.00 | 53 | 924.7 |
| 20260831044019 | 52 | 360 | 6.0 | 10.0 | 0.00 | 0.00 | 0.00 | 52 | 925.0 |
| 20260831043519 | 52 | 360 | 7.0 | 12.0 | 0.00 | 0.00 | 0.00 | 52 | 924.8 |
| 20260831043057 | 52 | 360 | 9.0 | 12.0 | 0.00 | 0.00 | 0.00 | 52 | 924.9 |
| 20260831042516 | 52 | 360 | 6.0 | 13.0 | 0.00 | 0.00 | 0.00 | 51 | 924.9 |
| 20260831042016 | 53 | 360 | 8.0 | 14.0 | 0.00 | 0.00 | 0.00 | 51 | 925.0 |
| 20260831041559 | 53 | 360 | 8.0 | 14.0 | 0.00 | 0.00 | 0.00 | 50 | 924.7 |
| 20260831041019 | 54 | 360 | 7.0 | 17.0 | 0.00 | 0.00 | 0.00 | 48 | 924.7 |
| 20260831040519 | 54 | 360 | 8.0 | 17.0 | 0.00 | 0.00 | 0.00 | 47 | 924.7 |
| 20260831040051 | 55 | 360 | 11.0 | 20.0 | 0.00 | 0.00 | 0.00 | 46 | 924.5 |
| 20260831035517 | 56 | 360 | 14.0 | 25.0 | 0.00 | 0.00 | 0.00 | 45 | 924.8 |
| 20260831035018 | 57 | 360 | 17.0 | 25.0 | 0.00 | 0.00 | 0.00 | 43 | 924.9 |
| 20260831034557 | 57 | 360 | 14.0 | 25.0 | 0.00 | 0.00 | 0.00 | 40 | 925.0 |
| 20260831034016 | 57 | 360 | 14.0 | 25.0 | 0.00 | 0.00 | 0.00 | 40 | 924.6 |
| 20260831033518 | 57 | 360 | 14.0 | 21.0 | 0.00 | 0.00 | 0.00 | 40 | 924.4 |
| 20260831033052 | 57 | 360 | 16.0 | 24.0 | 0.00 | 0.00 | 0.00 | 40 | 924.3 |
| 20260831032519 | 57 | 360 | 16.0 | 24.0 | 0.00 | 0.00 | 0.00 | 40 | 924.2 |
| 20260831032019 | 56 | 360 | 12.0 | 21.0 | 0.00 | 0.00 | 0.00 | 41 | 924.1 |
| 20260831031555 | 56 | 360 | 13.0 | 21.0 | 0.00 | 0.00 | 0.00 | 41 | 923.8 |
| 20260831031016 | 56 | 360 | 13.0 | 19.0 | 0.00 | 0.00 | 0.00 | 41 | 924.0 |
| 20260831030517 | 56 | 360 | 11.0 | 18.0 | 0.00 | 0.00 | 0.00 | 42 | 923.8 |
| 20260831025517 | 56 | 360 | 11.0 | 19.0 | 0.00 | 0.00 | 0.00 | 42 | 923.7 |
| 20260831025019 | 56 | 360 | 11.0 | 19.0 | 0.00 | 0.00 | 0.00 | 42 | 923.5 |
| 20260831024600 | 56 | 360 | 10.0 | 17.0 | 0.00 | 0.00 | 0.00 | 42 | 923.6 |
| 20260831024017 | 56 | 360 | 12.0 | 19.0 | 0.00 | 0.00 | 0.00 | 41 | 923.4 |
| 20260831023521 | 57 | 360 | 11.0 | 19.0 | 0.00 | 0.00 | 0.00 | 41 | 923.5 |
| 20260831023055 | 57 | 360 | 13.0 | 20.0 | 0.00 | 0.00 | 0.00 | 40 | 923.5 |
| 20260831022516 | 57 | 360 | 13.0 | 20.0 | 0.00 | 0.00 | 0.00 | 40 | 923.4 |
| 20260831022018 | 57 | 360 | 10.0 | 21.0 | 0.00 | 0.00 | 0.00 | 39 | 923.4 |
| 20260831021600 | 57 | 360 | 14.0 | 21.0 | 0.00 | 0.00 | 0.00 | 39 | 923.1 |
| 20260831021018 | 58 | 360 | 13.0 | 23.0 | 0.00 | 0.00 | 0.00 | 39 | 923.2 |
| 20260831020516 | 58 | 360 | 14.0 | 23.0 | 0.00 | 0.00 | 0.00 | 39 | 923.2 |
| 20260831015517 | 58 | 360 | 15.0 | 26.0 | 0.00 | 0.00 | 0.00 | 38 | 923.0 |
| 20260831015015 | 58 | 360 | 15.0 | 25.0 | 0.00 | 0.00 | 0.00 | 38 | 923.1 |
| 20260831014603 | 59 | 360 | 16.0 | 25.0 | 0.00 | 0.00 | 0.00 | 37 | 923.1 |
| 20260831014017 | 59 | 360 | 16.0 | 23.0 | 0.00 | 0.00 | 0.00 | 37 | 923.3 |
| 20260831013522 | 60 | 360 | 14.0 | 25.0 | 0.00 | 0.00 | 0.00 | 36 | 923.1 |
| 20260831013055 | 60 | 360 | 17.0 | 26.0 | 0.00 | 0.00 | 0.00 | 35 | 923.3 |
| 20260831012518 | 60 | 360 | 16.0 | 26.0 | 0.00 | 0.00 | 0.00 | 35 | 923.2 |
| 20260831012018 | 60 | 360 | 15.0 | 25.0 | 0.00 | 0.00 | 0.00 | 35 | 923.4 |
| 20260831011604 | 60 | 360 | 15.0 | 25.0 | 0.00 | 0.00 | 0.00 | 35 | 923.0 |
| 20260831011019 | 60 | 360 | 12.0 | 29.0 | 0.00 | 0.00 | 0.00 | 36 | 923.1 |
| 20260831010516 | 60 | 360 | 17.0 | 29.0 | 0.00 | 0.00 | 0.00 | 35 | 923.0 |
| 20260831010055 | 60 | 360 | 19.0 | 26.0 | 0.00 | 0.00 | 0.00 | 35 | 922.8 |
| 20260831005517 | 60 | 360 | 18.0 | 26.0 | 0.00 | 0.00 | 0.00 | 35 | 922.9 |
| 20260831005021 | 61 | 360 | 15.0 | 26.0 | 0.00 | 0.00 | 0.00 | 34 | 923.0 |
| 20260831004554 | 61 | 360 | 16.0 | 29.0 | 0.00 | 0.00 | 0.00 | 34 | 922.9 |
| 20260831004020 | 61 | 360 | 17.0 | 29.0 | 0.00 | 0.00 | 0.00 | 33 | 922.9 |
| 20260831003520 | 61 | 360 | 17.0 | 31.0 | 0.00 | 0.00 | 0.00 | 33 | 922.9 |
| 20260831003104 | 61 | 360 | 19.0 | 31.0 | 0.00 | 0.00 | 0.00 | 33 | 922.9 |
| 20260831002518 | 62 | 360 | 20.0 | 31.0 | 0.00 | 0.00 | 0.00 | 33 | 923.0 |
| 20260831002018 | 62 | 360 | 18.0 | 27.0 | 0.00 | 0.00 | 0.00 | 33 | 922.8 |
| 20260831001608 | 62 | 360 | 16.0 | 32.0 | 0.00 | 0.00 | 0.00 | 33 | 922.9 |
| 20260831001017 | 62 | 360 | 20.0 | 32.0 | 0.00 | 0.00 | 0.00 | 33 | 922.9 |
| 20260831000520 | 62 | 360 | 16.0 | 30.0 | 0.00 | 0.00 | 0.00 | 33 | 922.9 |
| 20260831000059 | 62 | 360 | 19.0 | 30.0 | 0.00 | 0.00 | 0.00 | 33 | 922.9 |
| 20260830235517 | 62 | 360 | 21.0 | 29.0 | 0.00 | 0.00 | 0.00 | 33 | 922.9 |
| 20260830235016 | 63 | 360 | 14.0 | 32.0 | 0.00 | 0.00 | 0.00 | 34 | 923.1 |
| 20260830234605 | 63 | 360 | 20.0 | 32.0 | 0.00 | 0.00 | 0.00 | 33 | 922.7 |
| 20260830234017 | 62 | 360 | 18.0 | 29.0 | 0.00 | 0.00 | 0.00 | 35 | 923.1 |
| 20260830233517 | 61 | 360 | 18.0 | 32.0 | 0.00 | 0.00 | 0.00 | 35 | 923.1 |
| 20260830233101 | 62 | 360 | 20.0 | 35.0 | 0.00 | 0.00 | 0.00 | 34 | 923.1 |
| 20260830232519 | 62 | 360 | 22.0 | 35.0 | 0.00 | 0.00 | 0.00 | 34 | 923.1 |
| 20260830232023 | 61 | 360 | 19.0 | 31.0 | 0.00 | 0.00 | 0.00 | 35 | 923.1 |
| 20260830231559 | 61 | 360 | 22.0 | 31.0 | 0.00 | 0.00 | 0.00 | 35 | 922.9 |
| 20260830231016 | 62 | 360 | 20.0 | 31.0 | 0.00 | 0.00 | 0.00 | 34 | 923.0 |
| 20260830230518 | 61 | 360 | 19.0 | 31.0 | 0.00 | 0.00 | 0.00 | 35 | 922.9 |
| 20260830230106 | 61 | 360 | 19.0 | 33.0 | 0.00 | 0.00 | 0.00 | 35 | 923.4 |
| 20260830225516 | 62 | 360 | 21.0 | 33.0 | 0.00 | 0.01 | 0.00 | 33 | 923.2 |
| 20260830225016 | 63 | 360 | 20.0 | 31.0 | 0.00 | 0.01 | 0.00 | 33 | 923.1 |
| 20260830224559 | 63 | 360 | 20.0 | 31.0 | 0.00 | 0.01 | 0.00 | 32 | 923.2 |
| 20260830224017 | 63 | 360 | 21.0 | 33.0 | 0.00 | 0.01 | 0.00 | 33 | 923.0 |
| 20260830223521 | 63 | 360 | 22.0 | 33.0 | 0.00 | 0.01 | 0.00 | 33 | 923.1 |
| 20260830223104 | 63 | 360 | 20.0 | 35.0 | 0.00 | 0.01 | 0.00 | 33 | 922.9 |
| 20260830222518 | 63 | 360 | 24.0 | 35.0 | 0.00 | 0.01 | 0.00 | 33 | 922.9 |
| 20260830222020 | 63 | 360 | 20.0 | 33.0 | 0.00 | 0.01 | 0.00 | 32 | 923.0 |
| 20260830221558 | 64 | 360 | 20.0 | 31.0 | 0.00 | 0.01 | 0.00 | 32 | 923.2 |
| 20260830221017 | 63 | 360 | 18.0 | 33.0 | 0.00 | 0.01 | 0.00 | 33 | 923.2 |
| 20260830220516 | 62 | 360 | 20.0 | 33.0 | 0.00 | 0.01 | 0.00 | 34 | 923.1 |
| 20260830220125 | 62 | 360 | 20.0 | 31.0 | 0.00 | 0.01 | 0.00 | 34 | 923.2 |
| 20260830215521 | 63 | 360 | 20.0 | 30.0 | 0.00 | 0.21 | 0.00 | 32 | 923.2 |
| 20260830215021 | 63 | 360 | 18.0 | 34.0 | 0.00 | 0.21 | 0.00 | 34 | 923.1 |
| 20260830214626 | 61 | 360 | 20.0 | 34.0 | 0.00 | 0.21 | 0.00 | 35 | 923.1 |
| 20260830214016 | 60 | 360 | 21.0 | 32.0 | 0.00 | 0.21 | 0.00 | 36 | 923.3 |
| 20260830213516 | 61 | 360 | 22.0 | 38.0 | 0.00 | 0.21 | 0.00 | 34 | 923.4 |
| 20260830213050 | 62 | 360 | 26.0 | 38.0 | 0.00 | 0.21 | 0.00 | 33 | 923.0 |
| 20260830212518 | 63 | 360 | 23.0 | 36.0 | 0.00 | 0.21 | 0.00 | 33 | 923.3 |
| 20260830212018 | 63 | 360 | 25.0 | 36.0 | 0.00 | 0.21 | 0.00 | 33 | 923.3 |
| 20260830211602 | 63 | 360 | 23.0 | 36.0 | 0.00 | 0.21 | 0.00 | 32 | 923.2 |
| 20260830211021 | 63 | 360 | 19.0 | 33.0 | 0.00 | 0.21 | 0.00 | 33 | 923.4 |
| 20260830210521 | 63 | 360 | 16.0 | 32.0 | 0.00 | 0.21 | 0.00 | 33 | 923.4 |
| 20260830210104 | 62 | 360 | 20.0 | 32.0 | 0.00 | 0.21 | 0.00 | 33 | 923.1 |
| 20260830205517 | 62 | 360 | 20.0 | 33.0 | 0.00 | 0.21 | 0.00 | 34 | 923.2 |
| 20260830205017 | 61 | 360 | 21.0 | 33.0 | 0.00 | 0.21 | 0.00 | 34 | 923.4 |
| 20260830204559 | 61 | 360 | 21.0 | 31.0 | 0.00 | 0.21 | 0.00 | 34 | 923.3 |
| 20260830204018 | 61 | 360 | 18.0 | 33.0 | 0.00 | 0.21 | 0.00 | 35 | 923.3 |
| 20260830203516 | 61 | 360 | 17.0 | 33.0 | 0.00 | 0.21 | 0.00 | 36 | 923.2 |
| 20260830203106 | 61 | 360 | 19.0 | 32.0 | 0.00 | 0.21 | 0.00 | 35 | 923.2 |
| 20260830202519 | 61 | 360 | 21.0 | 32.0 | 0.00 | 0.21 | 0.00 | 35 | 923.3 |
| 20260830202019 | 62 | 360 | 20.0 | 29.0 | 0.00 | 0.21 | 0.00 | 33 | 923.5 |
| 20260830201603 | 61 | 360 | 19.0 | 29.0 | 0.00 | 0.21 | 0.00 | 35 | 923.4 |
| 20260830201023 | 61 | 360 | 16.0 | 26.0 | 0.00 | 0.21 | 0.00 | 36 | 923.4 |
| 20260830200520 | 61 | 360 | 17.0 | 25.0 | 0.00 | 0.21 | 0.00 | 36 | 923.6 |
| 20260830200110 | 62 | 360 | 13.0 | 23.0 | 0.00 | 0.21 | 0.00 | 37 | 923.6 |
| 20260830195518 | 62 | 360 | 17.0 | 23.0 | 0.00 | 0.21 | 0.00 | 36 | 923.5 |
| 20260830195017 | 61 | 360 | 12.0 | 19.0 | 0.00 | 0.21 | 0.00 | 38 | 923.4 |
| 20260830194604 | 61 | 360 | 14.0 | 21.0 | 0.00 | 0.21 | 0.00 | 38 | 923.5 |
| 20260830194018 | 60 | 360 | 14.0 | 27.0 | 0.00 | 0.21 | 0.00 | 38 | 923.5 |
| 20260830193516 | 61 | 360 | 16.0 | 27.0 | 0.00 | 0.21 | 0.00 | 37 | 923.5 |
| 20260830193130 | 62 | 360 | 16.0 | 27.0 | 0.00 | 0.21 | 0.00 | 36 | 923.5 |
| 20260830192516 | 62 | 360 | 16.0 | 27.0 | 0.00 | 0.21 | 0.00 | 37 | 923.3 |
| 20260830192021 | 61 | 360 | 17.0 | 27.0 | 0.00 | 0.21 | 0.00 | 38 | 923.6 |
| 20260830191602 | 59 | 360 | 17.0 | 27.0 | 0.00 | 0.21 | 0.00 | 39 | 923.4 |
| 20260830191020 | 59 | 360 | 19.0 | 30.0 | 0.00 | 0.21 | 0.00 | 38 | 923.6 |
| 20260830190520 | 59 | 360 | 19.0 | 30.0 | 0.00 | 0.21 | 0.00 | 38 | 923.4 |
| 20260830190105 | 58 | 360 | 14.0 | 26.0 | 0.00 | 0.21 | 0.00 | 40 | 923.6 |
| 20260830185517 | 58 | 360 | 18.0 | 26.0 | 0.00 | 0.21 | 0.00 | 40 | 923.6 |
| 20260830185018 | 58 | 360 | 18.0 | 29.0 | 0.00 | 0.21 | 0.00 | 40 | 923.6 |
| 20260830184614 | 58 | 360 | 18.0 | 29.0 | 0.00 | 0.21 | 0.00 | 39 | 923.5 |
| 20260830184018 | 59 | 360 | 18.0 | 26.0 | 0.00 | 0.21 | 0.00 | 39 | 923.5 |
| 20260830183519 | 59 | 360 | 15.0 | 29.0 | 0.00 | 0.21 | 0.00 | 39 | 923.4 |
| 20260830183105 | 59 | 360 | 18.0 | 29.0 | 0.00 | 0.21 | 0.00 | 38 | 923.5 |
| 20260830182518 | 59 | 360 | 19.0 | 30.0 | 0.00 | 0.21 | 0.00 | 36 | 923.4 |
| 20260830182021 | 59 | 360 | 18.0 | 34.0 | 0.00 | 0.21 | 0.00 | 37 | 923.4 |
| 20260830181627 | 60 | 360 | 23.0 | 31.0 | 0.00 | 0.21 | 0.00 | 36 | 923.4 |
| 20260830181021 | 61 | 360 | 21.0 | 29.0 | 0.00 | 0.21 | 0.00 | 35 | 923.2 |
| 20260830180524 | 61 | 360 | 17.0 | 26.0 | 0.00 | 0.21 | 0.00 | 35 | 923.4 |
| 20260830180115 | 61 | 360 | 15.0 | 25.0 | 0.00 | 0.21 | 0.00 | 36 | 923.2 |
| 20260830175519 | 61 | 360 | 16.0 | 28.0 | 0.00 | 0.21 | 0.00 | 34 | 923.1 |
| 20260830175018 | 62 | 360 | 16.0 | 29.0 | 0.00 | 0.21 | 0.00 | 35 | 923.2 |
| 20260830174617 | 61 | 360 | 16.0 | 27.0 | 0.00 | 0.21 | 0.00 | 35 | 923.2 |
| 20260830174018 | 61 | 360 | 14.0 | 24.0 | 0.00 | 0.21 | 0.00 | 36 | 923.4 |
| 20260830173520 | 61 | 360 | 13.0 | 21.0 | 0.00 | 0.21 | 0.00 | 35 | 923.4 |
| 20260830173119 | 61 | 360 | 13.0 | 23.0 | 0.00 | 0.21 | 0.00 | 36 | 923.2 |
| 20260830172526 | 61 | 360 | 15.0 | 25.0 | 0.00 | 0.21 | 0.00 | 35 | 923.4 |
| 20260830172020 | 61 | 360 | 16.0 | 25.0 | 0.00 | 0.21 | 0.00 | 35 | 923.4 |
| 20260830171606 | 61 | 360 | 13.0 | 22.0 | 0.00 | 0.21 | 0.00 | 36 | 923.2 |
| 20260830171017 | 61 | 360 | 15.0 | 26.0 | 0.00 | 0.21 | 0.00 | 35 | 923.3 |
| 20260830170519 | 61 | 360 | 12.0 | 25.0 | 0.00 | 0.21 | 0.00 | 37 | 923.3 |
| 20260830170124 | 60 | 360 | 16.0 | 25.0 | 0.00 | 0.21 | 0.00 | 36 | 923.5 |
| 20260830165521 | 60 | 360 | 17.0 | 23.0 | 0.00 | 0.21 | 0.00 | 35 | 923.5 |
| 20260830165020 | 60 | 360 | 13.0 | 24.0 | 0.00 | 0.21 | 0.00 | 37 | 923.5 |
| 20260830164603 | 60 | 360 | 16.0 | 26.0 | 0.00 | 0.21 | 0.00 | 37 | 923.5 |
| 20260830164019 | 61 | 360 | 17.0 | 26.0 | 0.00 | 0.21 | 0.00 | 35 | 923.5 |
| 20260830163517 | 61 | 360 | 12.0 | 23.0 | 0.00 | 0.21 | 0.00 | 35 | 923.5 |
| 20260830163109 | 62 | 360 | 14.0 | 21.0 | 0.00 | 0.21 | 0.00 | 35 | 923.5 |
| 20260830162516 | 61 | 360 | 12.0 | 24.0 | 0.00 | 0.21 | 0.00 | 34 | 923.4 |
| 20260830162017 | 61 | 360 | 13.0 | 24.0 | 0.00 | 0.21 | 0.00 | 34 | 923.4 |
| 20260830161603 | 61 | 360 | 12.0 | 22.0 | 0.00 | 0.21 | 0.00 | 33 | 923.3 |
| 20260830161016 | 61 | 360 | 14.0 | 22.0 | 0.00 | 0.21 | 0.00 | 33 | 923.3 |
| 20260830160516 | 61 | 360 | 13.0 | 20.0 | 0.00 | 0.21 | 0.00 | 33 | 922.9 |
| 20260830155521 | 60 | 360 | 13.0 | 22.0 | 0.00 | 0.21 | 0.00 | 33 | 923.0 |
| 20260830155017 | 60 | 360 | 13.0 | 22.0 | 0.00 | 0.21 | 0.00 | 33 | 923.1 |
| 20260830154557 | 60 | 360 | 12.0 | 18.0 | 0.00 | 0.21 | 0.00 | 33 | 923.2 |
| 20260830154018 | 60 | 360 | 8.0 | 17.0 | 0.00 | 0.21 | 0.00 | 34 | 923.4 |
| 20260830153517 | 60 | 360 | 10.0 | 17.0 | 0.00 | 0.21 | 0.00 | 32 | 923.4 |
| 20260830153058 | 60 | 360 | 8.0 | 16.0 | 0.00 | 0.21 | 0.00 | 33 | 923.2 |
| 20260830152519 | 59 | 360 | 11.0 | 18.0 | 0.00 | 0.21 | 0.00 | 33 | 923.4 |
| 20260830152016 | 59 | 360 | 12.0 | 18.0 | 0.00 | 0.21 | 0.00 | 33 | 923.1 |
| 20260830151601 | 59 | 360 | 7.0 | 14.0 | 0.00 | 0.21 | 0.00 | 34 | 923.4 |
| 20260830151017 | 59 | 360 | 9.0 | 15.0 | 0.00 | 0.21 | 0.00 | 34 | 923.4 |
| 20260830150521 | 58 | 360 | 8.0 | 18.0 | 0.00 | 0.21 | 0.00 | 35 | 923.3 |
| 20260830150129 | 58 | 360 | 9.0 | 18.0 | 0.00 | 0.21 | 0.00 | 36 | 923.2 |
| 20260830145520 | 58 | 360 | 10.0 | 18.0 | 0.00 | 0.21 | 0.00 | 35 | 923.1 |
| 20260830145017 | 58 | 360 | 10.0 | 16.0 | 0.00 | 0.21 | 0.00 | 35 | 923.1 |
| 20260830144611 | 58 | 360 | 8.0 | 14.0 | 0.00 | 0.21 | 0.00 | 35 | 923.4 |
| 20260830144019 | 57 | 360 | 8.0 | 13.0 | 0.00 | 0.21 | 0.00 | 35 | 923.6 |
| 20260830143519 | 57 | 360 | 7.0 | 11.0 | 0.00 | 0.21 | 0.00 | 36 | 923.6 |
| 20260830143124 | 57 | 360 | 6.0 | 10.0 | 0.00 | 0.21 | 0.00 | 37 | 923.6 |
| 20260830142517 | 56 | 360 | 4.0 | 6.0 | 0.00 | 0.21 | 0.00 | 38 | 923.6 |
| 20260830142029 | 56 | 360 | 3.0 | 9.0 | 0.00 | 0.21 | 0.00 | 39 | 923.4 |
| 20260830141606 | 55 | 360 | 4.0 | 9.0 | 0.00 | 0.21 | 0.00 | 38 | 923.5 |
| 20260830141018 | 55 | 360 | 4.0 | 9.0 | 0.00 | 0.21 | 0.00 | 40 | 923.6 |
| 20260830140520 | 55 | 360 | 3.0 | 8.0 | 0.00 | 0.21 | 0.00 | 40 | 923.6 |
| 20260830140110 | 54 | 360 | 4.0 | 6.0 | 0.00 | 0.21 | 0.00 | 41 | 923.5 |
| 20260830135519 | 54 | 360 | 2.0 | 6.0 | 0.00 | 0.21 | 0.00 | 42 | 923.5 |
| 20260830135018 | 54 | 360 | 4.0 | 8.0 | 0.00 | 0.21 | 0.00 | 41 | 923.6 |
| 20260830134617 | 54 | 360 | 4.0 | 8.0 | 0.00 | 0.21 | 0.00 | 41 | 923.6 |
| 20260830134017 | 54 | 360 | 4.0 | 9.0 | 0.00 | 0.21 | 0.00 | 40 | 923.6 |
| 20260830133517 | 54 | 360 | 3.0 | 9.0 | 0.00 | 0.21 | 0.00 | 40 | 923.7 |
| 20260830133116 | 53 | 360 | 4.0 | 11.0 | 0.00 | 0.21 | 0.00 | 41 | 923.8 |
| 20260830132521 | 52 | 360 | 5.0 | 11.0 | 0.00 | 0.21 | 0.00 | 42 | 923.6 |
| 20260830132021 | 51 | 360 | 5.0 | 11.0 | 0.00 | 0.21 | 0.00 | 44 | 923.5 |
| 20260830131627 | 50 | 360 | 5.0 | 10.0 | 0.00 | 0.21 | 0.00 | 45 | 923.6 |
| 20260830131024 | 50 | 360 | 4.0 | 9.0 | 0.00 | 0.21 | 0.00 | 45 | 923.6 |
| 20260830130519 | 50 | 360 | 5.0 | 9.0 | 0.00 | 0.21 | 0.00 | 45 | 923.6 |
| 20260830130126 | 50 | 360 | 4.0 | 9.0 | 0.00 | 0.21 | 0.00 | 46 | 923.5 |
| 20260830125518 | 50 | 360 | 6.0 | 9.0 | 0.00 | 0.21 | 0.00 | 45 | 923.4 |
| 20260830125019 | 51 | 360 | 4.0 | 8.0 | 0.00 | 0.21 | 0.00 | 44 | 923.4 |
| 20260830124607 | 51 | 360 | 4.0 | 10.0 | 0.00 | 0.21 | 0.00 | 44 | 923.4 |
| 20260830124023 | 51 | 360 | 6.0 | 10.0 | 0.00 | 0.21 | 0.00 | 44 | 923.5 |
| 20260830123523 | 51 | 360 | 4.0 | 8.0 | 0.00 | 0.21 | 0.00 | 44 | 923.4 |
| 20260830123121 | 52 | 360 | 4.0 | 11.0 | 0.00 | 0.21 | 0.00 | 43 | 923.5 |
| 20260830122519 | 52 | 360 | 7.0 | 12.0 | 0.00 | 0.21 | 0.00 | 43 | 923.5 |
| 20260830122018 | 52 | 360 | 7.0 | 12.0 | 0.00 | 0.21 | 0.00 | 43 | 923.5 |
| 20260830121628 | 52 | 360 | 6.0 | 11.0 | 0.00 | 0.21 | 0.00 | 43 | 923.2 |
| 20260830121017 | 52 | 360 | 7.0 | 12.0 | 0.00 | 0.21 | 0.00 | 42 | 923.4 |
| 20260830120518 | 52 | 360 | 7.0 | 15.0 | 0.00 | 0.21 | 0.00 | 42 | 923.2 |
| 20260830120124 | 52 | 360 | 11.0 | 16.0 | 0.00 | 0.21 | 0.00 | 42 | 923.3 |
| 20260830115518 | 52 | 360 | 12.0 | 17.0 | 0.00 | 0.21 | 0.00 | 41 | 923.1 |
| 20260830115018 | 53 | 360 | 12.0 | 16.0 | 0.00 | 0.21 | 0.00 | 41 | 923.0 |
| 20260830114619 | 53 | 360 | 10.0 | 18.0 | 0.00 | 0.21 | 0.00 | 40 | 923.1 |
| 20260830114024 | 53 | 360 | 11.0 | 18.0 | 0.00 | 0.21 | 0.00 | 40 | 922.9 |
| 20260830113520 | 53 | 360 | 9.0 | 14.0 | 0.00 | 0.21 | 0.00 | 40 | 923.0 |
| 20260830113123 | 53 | 360 | 8.0 | 13.0 | 0.00 | 0.21 | 0.00 | 41 | 923.0 |
| 20260830112524 | 54 | 360 | 9.0 | 15.0 | 0.00 | 0.21 | 0.00 | 41 | 923.1 |
| 20260830112020 | 54 | 360 | 10.0 | 16.0 | 0.00 | 0.21 | 0.00 | 40 | 923.0 |
| 20260830111626 | 54 | 360 | 10.0 | 16.0 | 0.00 | 0.21 | 0.00 | 40 | 922.8 |
| 20260830111019 | 54 | 360 | 9.0 | 13.0 | 0.00 | 0.21 | 0.00 | 40 | 922.9 |
| 20260830110518 | 54 | 360 | 8.0 | 13.0 | 0.00 | 0.21 | 0.00 | 41 | 923.1 |
| 20260830110129 | 54 | 360 | 8.0 | 13.0 | 0.00 | 0.21 | 0.00 | 41 | 923.1 |
| 20260830105521 | 54 | 360 | 7.0 | 11.0 | 0.00 | 0.21 | 0.00 | 41 | 923.2 |
| 20260830105018 | 54 | 360 | 7.0 | 12.0 | 0.00 | 0.21 | 0.00 | 40 | 923.1 |
| 20260830104624 | 54 | 360 | 7.0 | 12.0 | 0.00 | 0.21 | 0.00 | 39 | 923.0 |
| 20260830104026 | 55 | 360 | 4.0 | 14.0 | 0.00 | 0.21 | 0.00 | 40 | 922.9 |
| 20260830103523 | 55 | 360 | 8.0 | 14.0 | 0.00 | 0.21 | 0.00 | 39 | 923.3 |
| 20260830103122 | 55 | 360 | 8.0 | 13.0 | 0.00 | 0.21 | 0.00 | 39 | 923.1 |
| 20260830102523 | 56 | 360 | 8.0 | 14.0 | 0.00 | 0.21 | 0.00 | 38 | 923.1 |
| 20260830102017 | 56 | 360 | 9.0 | 14.0 | 0.00 | 0.21 | 0.00 | 38 | 923.2 |
| 20260830101623 | 56 | 360 | 7.0 | 15.0 | 0.00 | 0.21 | 0.00 | 39 | 923.4 |
| 20260830101023 | 56 | 360 | 9.0 | 17.0 | 0.00 | 0.21 | 0.00 | 38 | 923.4 |
| 20260830100520 | 56 | 360 | 11.0 | 17.0 | 0.00 | 0.21 | 0.00 | 38 | 923.4 |
| 20260830100126 | 56 | 360 | 11.0 | 21.0 | 0.00 | 0.21 | 0.00 | 37 | 923.4 |
| 20260830095521 | 56 | 360 | 12.0 | 21.0 | 0.00 | 0.21 | 0.00 | 38 | 923.4 |
| 20260830095020 | 56 | 360 | 11.0 | 17.0 | 0.00 | 0.21 | 0.00 | 38 | 922.9 |
| 20260830094622 | 56 | 360 | 11.0 | 16.0 | 0.00 | 0.21 | 0.00 | 37 | 922.9 |
| 20260830094020 | 56 | 360 | 8.0 | 14.0 | 0.00 | 0.21 | 0.00 | 38 | 923.0 |
| 20260830093518 | 57 | 360 | 9.0 | 16.0 | 0.00 | 0.21 | 0.00 | 37 | 923.1 |
| 20260830093123 | 57 | 360 | 11.0 | 16.0 | 0.00 | 0.21 | 0.00 | 37 | 923.1 |
| 20260830092521 | 57 | 360 | 10.0 | 16.0 | 0.00 | 0.21 | 0.00 | 37 | 923.1 |
| 20260830092017 | 57 | 360 | 9.0 | 14.0 | 0.00 | 0.21 | 0.00 | 38 | 922.9 |
| 20260830091621 | 57 | 360 | 9.0 | 13.0 | 0.00 | 0.21 | 0.00 | 38 | 923.0 |
| 20260830091019 | 57 | 360 | 7.0 | 13.0 | 0.00 | 0.21 | 0.00 | 38 | 923.0 |
| 20260830090523 | 57 | 360 | 8.0 | 12.0 | 0.00 | 0.21 | 0.00 | 38 | 922.9 |
| 20260830090120 | 57 | 360 | 6.0 | 12.0 | 0.00 | 0.21 | 0.00 | 38 | 922.8 |
| 20260830085520 | 57 | 360 | 8.0 | 12.0 | 0.00 | 0.21 | 0.00 | 39 | 922.8 |
| 20260830085020 | 57 | 360 | 6.0 | 11.0 | 0.00 | 0.21 | 0.00 | 40 | 922.9 |
| 20260830084626 | 56 | 360 | 6.0 | 10.0 | 0.00 | 0.21 | 0.00 | 41 | 922.9 |
| 20260830084015 | 56 | 360 | 7.0 | 10.0 | 0.00 | 0.21 | 0.00 | 42 | 922.9 |
| 20260830083516 | 56 | 360 | 4.0 | 9.0 | 0.00 | 0.21 | 0.00 | 42 | 922.6 |
| 20260830083041 | 57 | 360 | 5.0 | 12.0 | 0.00 | 0.21 | 0.00 | 41 | 922.5 |